Weather in Lodz

2221 UTC 19 August 2017 EPLL 192200Z VRB02KT 6000 MIFG SCT020 BKN026 BKN036 15/15 Q1019

Where pilots are born

  • Maxime from Belgium

    I would like to thank you again Bartolini Air for their professionalism and commitment. It is a high quality training with...

  • Fraser Johnston, First Officer, Loganair

    The team at Bartolini never promised more than they could deliver, and I achieved each element of my training within the...

  • Michele from Italy

    „The best”

22000+

Operations per year

1500+

Number of trained pilots

55+

Nationality students

How to join the training?